Location: Unspecified
(0.0000°N, 0.0000°E)
Time: 21:44:32
(UTC+00:00)

Vanguard 3 - All Passes

Search period start: 25 March 2017 00:00
Search period end: 04 April 2017 00:00
Orbit: 508 x 3265 km, 33.3° (Epoch: 24 March)

Date Brightness Start Highest point End Pass type
(mag) Time Alt. Az. Time Alt. Az. Time Alt. Az.
25 Mar - 04:07:03 10° NW 04:11:52 89° NNE 04:20:13 10° SE visible
25 Mar - 06:19:46 10° WSW 06:25:50 25° SSW 06:35:06 10° SSE daylight
25 Mar - 08:37:46 10° SSW 08:44:00 14° S 08:51:37 10° SSE daylight
25 Mar - 10:55:05 10° SSW 11:06:03 18° SSE 11:18:05 10° SE daylight
25 Mar - 13:09:40 10° SSW 13:27:18 38° SSE 13:42:28 10° E daylight
25 Mar - 15:25:36 10° SW 15:45:24 81° SE 15:58:14 10° ENE daylight
25 Mar - 17:45:51 10° WSW 18:00:06 37° NW 18:09:03 10° NNE daylight
26 Mar - 02:54:49 10° NNW 02:58:38 34° NE 03:04:09 10° ESE visible
26 Mar - 05:05:35 10° W 05:10:49 36° SSW 05:19:26 10° SE visible
26 Mar - 07:21:27 10° SW 07:26:51 15° S 07:33:51 10° SSE daylight
26 Mar - 09:39:55 10° SSW 09:47:14 14° S 09:55:45 10° SE daylight
26 Mar - 11:54:18 10° SSW 12:09:10 27° SSE 12:24:06 10° ESE daylight
26 Mar - 14:08:55 10° SW 14:28:39 59° SSE 14:43:33 10° ENE daylight
26 Mar - 16:26:41 10° WSW 16:45:01 62° NW 16:56:26 10° NE daylight
26 Mar - 18:51:31 10° WNW 18:59:05 17° NW 19:04:48 10° N visible
27 Mar - 01:44:54 10° NNE 01:45:31 10° NE 01:46:10 10° NE night (unlit)
27 Mar - 03:52:14 10° WNW 03:56:41 67° SSW 04:04:06 10° SE visible
27 Mar - 06:05:52 10° WSW 06:10:51 19° SSW 06:17:49 10° SSE daylight
27 Mar - 08:24:41 10° SSW 08:29:05 12° S 08:34:10 10° SSE daylight
27 Mar - 10:39:32 10° SSW 10:50:40 19° SSE 11:03:11 10° ESE daylight
27 Mar - 12:53:07 10° SW 13:11:11 43° SSE 13:27:21 10° E daylight
27 Mar - 15:08:54 10° SW 15:29:05 89° NW 15:42:51 10° NE daylight
27 Mar - 17:29:49 10° W 17:44:09 33° NW 17:53:34 10° NNE daylight
28 Mar - 02:39:38 10° NW 02:43:24 46° NE 02:48:44 10° ESE visible
28 Mar - 04:51:16 10° W 04:55:49 26° SSW 05:02:42 10° SSE visible
28 Mar - 07:08:46 10° SSW 07:11:59 12° S 07:15:42 10° SSE daylight
28 Mar - 09:25:25 10° SSW 09:32:11 14° SSE 09:40:03 10° SE daylight
28 Mar - 11:38:07 10° SSW 11:53:17 30° SSE 12:09:06 10° E daylight
28 Mar - 13:52:17 10° SW 14:12:17 67° SE 14:28:10 10° ENE daylight
28 Mar - 16:10:15 10° WSW 16:28:46 55° NW 16:40:57 10° NE daylight
28 Mar - 18:36:22 10° WNW 18:43:33 15° NW 18:49:11 10° N visible
29 Mar - 01:28:14 10° N 01:30:19 14° NE 01:32:35 10° ENE night (unlit)
29 Mar - 03:37:31 10° WNW 03:41:38 46° SSW 03:47:58 10° SE visible
29 Mar - 05:52:36 10° SW 05:55:59 13° SSW 06:00:11 10° SSE daylight
29 Mar - 08:13:01 10° S 08:14:14 10° S 08:15:29 10° S daylight
29 Mar - 10:23:52 10° SSW 10:35:10 21° SSE 10:48:14 10° ESE daylight
29 Mar - 12:36:41 10° SW 12:54:54 48° SSE 13:12:02 10° ENE daylight
29 Mar - 14:52:20 10° WSW 15:12:38 81° NW 15:27:20 10° NE daylight
29 Mar - 17:13:54 10° W 17:28:11 30° NW 17:38:02 10° NNE daylight
30 Mar - 02:24:32 10° NW 02:28:14 67° NE 02:33:18 10° ESE visible
30 Mar - 04:37:17 10° WSW 04:40:55 18° SSW 04:45:49 10° SSE visible
30 Mar - 09:10:38 10° S 09:17:05 14° SSE 09:24:37 10° SE daylight
30 Mar - 11:21:59 10° SSW 11:37:15 34° SSE 11:53:55 10° E daylight
30 Mar - 13:35:47 10° SW 13:55:46 74° SE 14:12:37 10° ENE daylight
30 Mar - 15:53:58 10° WSW 16:12:27 50° NW 16:25:19 10° NNE daylight
30 Mar - 18:21:20 10° WNW 18:28:06 14° NNW 18:33:34 10° N visible
31 Mar - 01:12:22 10° NNW 01:15:10 20° NE 01:18:09 10° E night (unlit)
31 Mar - 03:23:00 10° W 03:26:39 30° SSW 03:31:48 10° SSE visible
31 Mar - 10:08:09 10° SSW 10:19:33 22° SSE 10:33:10 10° ESE daylight
31 Mar - 12:20:22 10° SW 12:38:28 54° SE 12:56:29 10° ENE daylight
31 Mar - 14:35:56 10° WSW 14:56:05 73° NW 15:11:38 10° NE daylight
31 Mar - 16:58:09 10° W 17:12:15 27° NW 17:22:25 10° NNE daylight
01 Apr - 02:09:31 10° WNW 02:13:11 79° SSW 02:17:48 10° SE night (unlit)
01 Apr - 04:24:04 10° SW 04:26:03 12° SSW 04:28:20 10° S visible
01 Apr - 08:55:34 10° S 09:01:55 14° SSE 09:09:24 10° SE daylight
01 Apr - 11:05:55 10° SSW 11:21:05 37° SSE 11:38:29 10° E daylight
01 Apr - 13:19:26 10° SW 13:39:08 82° SE 13:56:53 10° ENE daylight
01 Apr - 15:37:51 10° WSW 15:56:07 45° NW 16:09:37 10° NNE daylight
01 Apr - 18:06:22 10° NW 18:12:42 13° NNW 18:17:58 10° N daylight
02 Apr - 00:56:43 10° NNW 01:00:05 30° NE 01:03:28 10° E night (unlit)
02 Apr - 03:08:43 10° WSW 03:11:43 20° SSW 03:15:30 10° SSE visible
02 Apr - 09:52:24 10° SSW 10:03:48 24° SSE 10:17:57 10° ESE daylight
02 Apr - 12:04:10 10° SW 12:21:55 60° SE 12:40:46 10° ENE daylight
02 Apr - 14:19:43 10° WSW 14:39:30 66° NW 14:55:49 10° NE daylight
02 Apr - 16:42:34 10° W 16:56:22 25° NW 17:06:45 10° NNE daylight
02 Apr - 23:45:10 10° N 23:46:30 11° NNE 23:47:47 10° NE night (unlit)
03 Apr - 01:54:36 10° WNW 01:58:08 48° SW 02:02:16 10° SE night (unlit)
03 Apr - 08:40:16 10° S 08:46:40 14° SSE 08:54:19 10° SE daylight
03 Apr - 10:49:56 10° SSW 11:04:49 41° SE 11:22:51 10° E daylight
03 Apr - 13:03:15 10° SW 13:22:27 90° NW 13:40:58 10° NE daylight
03 Apr - 15:21:56 10° W 15:39:48 40° NW 15:53:48 10° NNE daylight
03 Apr - 17:51:26 10° NW 17:57:24 13° NNW 18:02:28 10° N daylight
